Regional Weather Roundup
Issued by NWS

Home | Current Version | Previous Version | Text Only | Print | Product List | Glossary On
Versions: 1 2 3 4 5 6 7 8 9 10 11 12 13 14 15 16 17 18 19 20 21 22 23 24 25 26 27 28 29 30 31 32 33 34 35 36 37 38 39 40 41 42 43 44 45 46 47 48 49 50
000
ASHW40 PHFO 270843
RWRHI

WEATHER ROUNDUP FOR HAWAII
NATIONAL WEATHER SERVICE HONOLULU HI
1000 PM HST FRI DEC 26 2014

THIS IS AN AUTOMATED REPORT THAT HAS NOT BEEN QUALITY CONTROLLED.

NOTE..."FAIR" INDICATES FEW OR NO CLOUDS BELOW 12,000 FEET WITH NO
SIGNIFICANT WEATHER AND/OR OBSTRUCTIONS TO VISIBILITY.

* - THESE SITES REPORT LIMITED FIELDS

HIZ001>004-270900-
KAUAI-NIIHAU-

CITY           SKY/WX    TMP DP  RH WIND       PRES   REMARKS
LIHUE APT      CLEAR     64  56  75 CALM      29.86S
PORT ALLEN*      N/A     70 N/A N/A NW10        N/A
POIPU*           N/A     63 N/A N/A N2          N/A
PRINCEVILLE*     N/A     68 N/A N/A MISG        N/A
KOKOLE POINT*    N/A     73 N/A N/A MISG        N/A
MOLOAA DAIRY*  NOT AVBL
WAIMEA HTS*      N/A     66  52  59 N3G9        N/A
PUU OPAE*        N/A     61  54  77 NW12G18     N/A
PUU LUA*       NOT AVBL
MAKAHA RIDGE*  NOT AVBL
$$

HIZ005>011-270900-
OAHU-

CITY           SKY/WX    TMP DP  RH WIND       PRES   REMARKS
HONOLULU       PTCLDY    71  63  75 N10       29.85S
KALAELOA       PTCLDY    65  61  87 CALM      29.86S
KANEOHE MCB    CLEAR     70  63  78 CALM      29.85S
WHEELER FIELD  FAIR      66  61  85 N5        29.87R
BELLOWS*         N/A    N/A N/A N/A W5G12       N/A
KAHUKU*          N/A    N/A N/A N/A W5G14       N/A
WHEELER*       NOT AVBL
WAIANAE HARBOR NOT AVBL
DILLINGHAM*      N/A     72  61  68 W2G12       N/A
KAHUKU TRN*      N/A    N/A N/A N/A W5G18       N/A
KAWAILOA*        N/A     64  61  88 NW3G9       N/A
KII*             N/A     72  61  68 W8G17       N/A
MAKUA RANGE*     N/A     72  59  64 E5G13       N/A
OAHU FOREST NW   N/A     61 -15   4 CALM        N/A
SCHOFIELD BRK*   N/A     66  61  82 MISG        N/A
SCHOFIELD S*   NOT AVBL
WAIANAE VLY*     N/A     66  59  77 N8G17       N/A
KUAOKALA*        N/A     68  59  73 CALM        N/A
HONOULIUULI*   NOT AVBL
MOKUOLOE IS*     N/A    N/A N/A N/A MISG        N/A
PALEHUA*         N/A     72  61  68 CALM        N/A
WAIAWA PHB*    NOT AVBL
$$

HIZ012>013-270900-
MOLOKAI-

CITY           SKY/WX    TMP DP  RH WIND       PRES   REMARKS
MOLOKAI AIRPT  CLOUDY    70  65  84 NW10      29.86S
KALAUPAPA      NOT AVBL
MAKAPULAPAI*     N/A     72  64  78 NW12        N/A
MOLOKAI 1*       N/A     59  59 100 N5G15       N/A
PUU ALII*        N/A     56  56 100 NW2G10      N/A
$$

HIZ016-270900-
KAHOOLAWE-

CITY           SKY/WX    TMP DP  RH WIND       PRES   REMARKS
KAHOOLAWE*       N/A     66 N/A N/A NW12G18     N/A
HAKIOAWA*        N/A     68  66  93 MISG      30.26S
HONOKANAIA*      N/A     74  66  76 W10       29.85S
KANELOA*         N/A     70  64  83 NW9G15    29.06S
KEALIALALO*    NOT AVBL
LUA MAKIKA*    NOT AVBL
$$

HIZ014>015-270900-
LANAI-

CITY           SKY/WX    TMP DP  RH WIND       PRES   REMARKS
LANAI CITY     FAIR      64  64 100 NW9       29.90R
LANAI 1*         N/A     66  66 100 N12G18      N/A
$$

HIZ017>028-270900-
MAUI-

CITY           SKY/WX    TMP DP  RH WIND       PRES   REMARKS
KAHULUI        CLEAR     69  62  78 CALM      29.85R
KAPALUA-W MAUI NOT AVBL
HANA AIRPORT   CLEAR     66  63  88 W8        29.85F
HANA*            N/A     66 N/A N/A SW5         N/A
HALEAKALA SUMM   N/A     43 -11  10 W20G33      N/A
MAALAEA BAY*   NOT AVBL
HALEAKALA*     NOT AVBL
KAUPO GAP*       N/A     54  39  58 NW10G18     N/A
KULA 1*          N/A     51   8  17 E3          N/A
$$

HIZ023>026-270900-
BIG ISLAND OF HAWAII COAST AND LOWER SLOPES-

CITY           SKY/WX    TMP DP  RH WIND       PRES   REMARKS
KAILUA KONA    MOCLDY    74  64  71 NE6       29.83S
HILO           CLEAR     69  65  86 SW5       29.84R
HONOKAA*       NOT AVBL
KAWAIHAE MWT*    N/A     73 N/A N/A E2          N/A
KAWAIHAE*        N/A     73 N/A N/A NE2         N/A
SOUTH POINT*     N/A     66 N/A N/A NE6         N/A
UPOLU AIRPORT*   N/A    N/A N/A N/A SW5G12      N/A
KAMUELA*       FOG       61  61 100 SW7       29.93S VSB 1/2
HAKALAU*         N/A     45  41  87 SW5G14      N/A
KALOKO-HONOKO*   N/A    N/A N/A N/A NE3       29.83S
PALI 2*          N/A    N/A N/A N/A E3          N/A
KEALAKOMO*       N/A     70  59  68 SE3         N/A
KAUPULEHU*       N/A     64  55  72 S6          N/A
KAPAPALA*        N/A     64  60  88 N1          N/A
LOWER KAHUKU*    N/A     57  55  94 N2          N/A
PUHE CS*       NOT AVBL
PUHO CS*         N/A     69  57  65 NE3         N/A
PTA KEAMUKU*     N/A     57  55  94 CALM        N/A
WAIKOLOA*        N/A     66  61  82 SE5         N/A
$$

HIZ027>028-270900-
BIG ISLAND OF HAWAII INTERIOR AND SUMMMITS-

CITY           SKY/WX    TMP DP  RH WIND       PRES   REMARKS
BRADSHAW FIELD CLOUDY    42  40  90 S3        30.15S
MK VISITOR CEN NOT AVBL
MAUNA KEA*       N/A     30 -18  11 NW78G91     N/A  WCI   9
MAUNA LOA*       N/A     41 -20   7 MISG        N/A
MAUNA LOA 1*   NOT AVBL
PTA KIPUKA*      N/A     45  36  70 SE3         N/A
PTA RANGE 17*    N/A     52  50  93 E5G12       N/A
PTA WEST*        N/A     50  48  93 SE5         N/A
NENE CABIN*      N/A    N/A N/A N/A N3          N/A
AHUMOA*          N/A     52   6  15 SE10        N/A
PTA PORTABLE*  NOT AVBL
PUU MALI*      NOT AVBL
$$

HIC003-270900-
NORTHWEST ISLANDS-

CITY           SKY/WX    TMP DP  RH WIND       PRES   REMARKS
MIDWAY ISLAND  CLEAR     66  63  88 CALM      30.08S
MIDWAY NOS*    NOT AVBL
FRENCH FRIGATE NOT AVBL
$$

PHZ110>124-180-270900-
BUOY REPORTS

STATION/POSITION TIME  TEMP    WIND        PRES    WAVE   SWELL
                       AIR SEA DIR/SP/G            HT/PER HT/DIR
                 (UTC) (F)     (DEG/KT/KT) (MB)    (FT/S) (FT/D)
BUOY 51001       NOT AVBL
BUOY 51101       0800   72 76  310/ 21/ 25 1011.3R   9/14   5/320
BUOY 51100       NOT AVBL
BUOY 51003       0800   75 78  350/ 16/ 19 1011.7R   7/10   5
BUOY 51004       0652   76 78  310/  4/  6 1010.4R   6/ 9   7/ 80
BARBERS PT BUOY  NOT AVBL
WAIMEA BAY BUOY  0800      77                N/A     8/ 9   3/340
KAILUA BAY BUOY  0800      76                N/A     6/ 9   2/ 20
LANAI BUOY       0800      78                N/A     3/10   2/230
BARBERS PT 2     0800      77                N/A     4/ 9   2/250
PAUWELA MAUI     0800      77                N/A     7/ 9   3/350
HILO             0800      78                N/A     7/ 8   2/ 80
KANEOHE BAY BUOY 0800      76                N/A     5/ 9   2/ 60
HANALEI KAUAI    NOT AVBL
KAHULUI HARBOR   0800   72 77  350/  3/  8 1010.4F
HONOLULU HARBOR  0800   72     350/  4/  6 1011.2R
KILO NALU        NOT AVBL
HILO HARBOR      0800   70     190/  3/  5 1009.9R
MOKUOLOE         0800   68 76  250/  1/  3 1011.2
NAWILIWILI       0800      77                N/A
WHOTS BUOY       NOT AVBL
BUOY 51028       NOT AVBL
$$

......................KEY........................................
  SKY/WX - SKY CONDITIONS/PRESENT WEATHER
  TMP    - TEMPERATURE IN FAHRENHEIT
  DWPT   - DEWPOINT IN FAHRENHEIT
  RH     - RELATIVE HUMIDITY IN PERCENT
  WIND   - DIRECTION AND SPEED /MPH FOR ISLANDS...KTS FOR BUOYS/
  PRES   - MEAN SEA LEVEL PRESSURE IN INCHES OF HG
  VSB    - VISIBILITY IN MILES
  HX     - HEAT INDEX
  WCI    - WIND CHILL INDEX
  VRB    - VARIABLE WIND DIRECTION
  N/A    - NOT AVAILABLE


USA.gov is the U.S. government's official web portal to all federal, state and local government web resources and services.